Probability
39 40 41 42 43 42 41 41 41 39 35 34 34 32 27 22 19 18 17 18 18 17 14 12 13 14 14 16 15 13 14 16 13 9 9 8 5 4 5 5 3 1 2
43 44 45 44 44 43 42 42 41 38 34 33 34 32 29 24 20 18 18 17 17 16 15 15 15 14 15 17 17 16 17 19 16 11 9 9 7 5 5 4 2 1 2
45 47 48 47 45 43 43 43 40 36 32 31 34 33 31 28 24 21 20 18 18 18 18 19 18 16 17 18 18 18 18 18 16 12 10 9 8 6 5 4 2 2 3
43 45 46 45 44 42 42 41 37 32 29 31 35 34 32 31 28 24 21 18 18 20 22 22 19 17 18 18 17 17 16 14 13 12 10 8 6 5 4 3 3 4 4
42 41 41 41 42 41 40 39 35 30 28 30 32 33 31 29 25 20 17 16 17 20 22 22 18 15 15 15 14 14 13 12 10 10 9 7 5 4 3 3 3 4 4
44 41 38 39 41 41 40 39 37 32 29 28 28 29 29 23 16 12 12 14 16 19 21 21 17 13 12 11 10 9 9 8 8 9 9 7 5 4 3 3 3 3 3
46 42 40 40 41 40 39 39 38 35 32 29 27 27 27 20 11 6 8 12 15 18 20 20 17 14 12 10 8 7 6 6 6 7 9 8 7 5 4 3 3 3 3
47 43 41 40 39 39 38 38 37 36 34 31 29 28 28 21 10 4 5 9 14 18 21 20 18 16 13 10 9 8 8 7 5 6 8 9 7 5 4 4 3 3 3
45 43 41 39 38 38 37 36 35 35 33 31 29 29 29 23 11 4 4 8 13 18 22 21 17 14 11 9 10 10 10 9 7 5 6 6 6 4 4 3 3 3 3
43 42 40 38 38 37 35 33 33 32 31 29 29 28 27 22 12 4 3 8 13 16 20 19 14 10 8 7 9 11 10 9 8 6 5 5 4 3 3 3 3 3 3
41 41 40 39 38 36 36 35 33 32 31 30 30 29 27 22 12 4 2 6 10 13 15 14 11 7 4 3 6 9 9 8 8 7 6 6 4 3 4 5 5 4 4
40 40 40 40 38 38 41 41 38 36 35 34 32 30 28 24 16 6 2 3 6 9 10 9 7 5 3 1 2 4 5 6 6 6 7 7 6 5 6 7 8 7 5
39 40 40 40 39 41 43 43 39 37 35 33 32 30 29 27 20 10 3 2 3 4 5 4 3 3 3 1 1 2 4 5 5 5 6 7 7 6 6 8 9 8 7
36 35 36 36 36 37 37 35 33 32 30 29 31 31 30 27 19 11 6 5 3 2 2 2 1 2 3 3 2 2 4 6 6 6 6 6 7 6 6 6 7 7 7
33 31 29 28 28 28 28 26 25 24 22 21 23 25 25 22 15 10 8 7 5 2 1 2 2 3 3 3 3 3 4 5 6 6 6 6 5 4 4 5 6 6 6
31 28 23 20 20 22 22 19 17 16 13 10 10 12 14 13 9 7 6 6 4 2 3 4 4 4 4 3 3 3 3 4 6 7 7 7 5 4 4 5 6 6 6
24 20 16 13 13 16 18 17 15 13 9 5 3 3 4 4 3 3 3 3 2 2 4 6 6 6 5 4 4 3 3 4 6 8 9 8 7 6 5 6 6 6 6
16 13 10 9 10 12 15 17 17 15 12 8 5 2 1 1 1 1 1 3 4 4 5 6 6 6 6 6 5 4 4 4 5 7 8 9 8 7 6 6 6 6 6
14 11 9 8 8 10 13 16 16 15 12 9 7 5 2 1 1 1 1 3 5 6 6 6 6 6 6 6 6 6 6 5 5 5 7 7 7 6 6 6 6 6 6
13 11 8 7 8 11 13 14 13 12 10 7 7 6 5 4 4 3 3 5 6 7 7 7 7 7 7 7 7 6 6 6 6 6 6 6 6 6 5 4 4 5 6
11 10 8 7 8 10 12 12 11 10 8 6 6 6 6 6 6 6 6 6 6 7 8 9 9 8 8 8 7 6 6 6 6 6 6 7 7 6 5 4 4 4 4
11 10 9 8 8 10 11 10 9 8 8 6 5 5 6 7 7 7 7 7 7 7 7 9 10 10 10 9 8 7 7 6 6 6 6 7 7 7 6 6 6 5 5
10 10 10 9 9 9 10 9 9 9 8 6 3 4 6 8 8 8 8 8 8 7 8 8 10 11 11 10 8 7 6 6 6 6 6 6 7 7 6 6 6 6 6
10 9 9 10 10 10 10 9 8 8 7 4 2 3 6 8 9 9 8 8 8 8 9 9 9 9 9 8 6 5 4 4 5 5 5 6 6 6 6 6 6 6 6
9 8 9 10 10 10 9 9 7 6 5 3 2 2 4 6 8 9 9 7 7 8 9 9 9 9 8 7 5 3 3 3 3 4 5 6 6 6 6 6 6 5 5
6 7 9 10 10 10 9 8 6 4 4 4 3 3 4 5 7 9 9 7 6 7 9 9 9 9 9 7 5 3 2 1 2 3 4 5 6 6 6 5 4 4 4
Wind_Speed
6 5 4 4 4 4 3 3 3 3 2 2 2 2 2 1 1 1 0 0 0 1 1 1 1 1 2 2 2 1 1 0 1 1 0 0 0 0 1 1 2 4 4
5 5 5 4 4 4 4 3 3 3 2 2 2 2 2 2 1 1 1 0 0 0 1 1 1 1 1 1 2 2 1 0 1 1 1 0 1 1 1 2 2 2 3
5 5 5 5 4 4 3 3 3 3 2 2 2 2 2 2 2 2 1 1 0 1 0 0 1 0 0 1 1 1 2 2 1 1 1 1 1 1 1 2 2 1 2
4 4 3 3 3 3 3 4 3 3 3 2 2 2 2 2 2 2 2 1 0 0 0 0 1 0 1 1 1 1 1 2 2 1 1 1 0 1 1 1 2 1 2
4 4 3 2 2 2 2 3 3 3 3 2 2 2 2 2 2 1 1 2 1 1 1 1 1 0 0 1 1 1 1 1 2 2 1 1 1 1 1 2 2 2 2
4 4 3 3 2 2 2 2 2 2 2 2 2 2 2 2 2 2 0 1 1 2 2 2 2 2 2 1 1 1 1 1 1 2 2 2 2 1 1 2 1 2 2
3 3 3 3 3 2 2 3 3 3 2 2 2 2 2 2 3 2 1 2 2 2 3 3 3 2 2 2 2 3 3 4 4 3 3 3 2 2 2 3 2 3 3
3 3 2 2 2 2 2 2 3 3 3 3 3 3 2 3 4 3 2 4 3 3 3 3 3 1 1 1 2 3 3 3 4 3 3 3 3 2 2 3 4 4 3
3 3 2 2 2 2 2 2 2 2 2 3 3 3 3 3 5 4 2 3 3 4 4 3 2 2 1 2 3 3 3 3 4 4 4 5 5 5 4 2 3 3 3
2 2 2 2 2 2 3 2 2 2 3 3 3 3 3 3 5 5 4 3 4 3 3 2 3 3 2 2 3 3 3 3 3 3 4 5 5 6 6 4 3 2 2
2 2 2 2 3 3 3 2 2 2 3 3 3 3 4 4 6 7 6 3 4 4 3 2 2 3 3 3 4 4 4 4 3 3 3 3 3 3 3 3 3 2 3
1 1 1 2 3 2 2 2 3 2 3 3 4 4 3 4 5 7 8 7 6 4 3 2 2 4 5 6 5 6 6 5 4 4 3 3 2 2 2 2 2 3 3
1 1 1 1 2 1 2 3 3 3 3 3 3 3 3 3 4 6 8 8 7 4 3 2 3 5 5 5 8 8 6 4 4 4 3 3 2 2 2 2 2 3 4
0 1 1 1 2 2 2 3 3 3 3 3 2 2 2 2 2 2 3 4 4 4 3 2 3 6 6 6 5 5 4 4 4 3 3 2 1 1 2 2 3 2 3
1 1 2 2 2 2 2 2 2 1 1 2 2 2 2 2 1 2 3 3 2 2 2 2 3 3 3 3 3 3 3 3 3 3 3 2 2 2 3 2 2 3 3
1 2 2 2 2 2 2 1 1 2 2 3 3 3 3 3 4 5 5 5 5 4 3 4 4 4 4 4 3 3 3 3 3 3 3 3 2 3 3 3 3 3 4
2 2 2 2 2 2 2 2 2 2 3 3 4 5 6 5 5 6 6 5 5 4 4 5 5 4 4 4 4 4 3 3 3 3 3 3 3 3 3 3 3 3 3
3 2 3 3 3 3 3 3 3 3 3 2 3 6 7 7 7 7 6 3 3 4 5 5 5 4 4 4 4 3 3 3 3 3 3 3 3 3 3 3 3 3 3
3 3 3 4 4 4 4 4 4 3 3 2 2 2 4 5 5 5 5 4 5 5 5 4 4 4 3 3 3 3 3 3 3 3 3 3 3 3 3 3 3 4 4
3 4 4 4 5 4 4 4 4 3 3 3 3 3 3 3 3 3 5 6 6 6 5 5 4 4 3 3 2 3 3 3 4 3 3 3 3 3 4 4 3 3 3
4 4 5 5 5 4 4 4 4 3 3 3 4 3 4 4 5 5 5 5 6 6 4 4 4 4 4 3 3 3 4 4 4 4 3 3 3 3 3 3 3 3 2
5 4 4 4 4 4 4 4 4 4 4 5 4 2 4 5 4 4 4 4 5 4 4 4 4 4 3 4 4 4 4 4 4 3 3 3 3 3 3 3 2 2 2
5 5 4 4 4 4 4 5 5 5 4 4 3 3 3 4 4 3 3 3 3 4 4 4 4 4 3 3 3 4 4 5 4 4 4 4 4 3 3 2 3 3 2
5 5 5 4 4 4 4 4 5 5 5 4 4 3 3 3 4 4 3 3 3 3 3 4 4 5 5 4 3 3 3 4 4 3 4 4 4 3 3 2 2 2 2
5 5 4 4 4 4 5 5 5 5 5 4 4 4 4 4 4 4 3 3 3 4 4 4 3 4 6 6 4 4 4 4 3 3 3 3 4 3 3 3 2 2 2
4 5 4 3 3 4 5 5 5 5 5 4 4 4 3 4 4 4 4 3 3 3 4 4 4 5 5 4 4 3 3 4 4 4 4 4 4 4 3 3 3 3 2
Wind_Direction
167 166 161 168 175 175 181 175 160 157 163 157 148 149 146 138 136 145 206 60 31 336 329 336 332 351 351 354 354 5 10 41 271 301 358 83 117 288 190 211 197 185 190
162 162 164 169 176 183 185 177 169 163 172 167 160 167 174 161 163 168 218 284 231 297 306 336 322 324 349 337 342 339 330 315 243 276 304 288 260 206 211 247 239 221 198
157 163 169 177 184 189 183 165 163 169 180 172 163 168 178 179 188 192 190 240 281 281 276 317 292 301 287 316 305 316 315 315 279 250 267 261 251 274 261 272 277 266 254
146 153 159 182 183 182 175 167 172 176 188 191 181 175 185 193 196 195 186 209 248 292 317 298 302 318 275 270 274 309 314 311 295 284 270 270 278 317 291 273 277 266 266
139 146 149 156 149 155 158 161 168 183 197 190 193 196 203 209 199 164 215 210 202 256 278 273 257 191 24 307 303 308 299 299 302 296 279 278 298 317 283 279 278 281 257
144 145 141 148 152 143 167 162 165 183 198 196 202 208 224 231 140 138 217 230 222 234 249 252 236 219 189 210 242 261 271 252 276 285 285 277 271 265 279 282 289 301 287
139 142 142 153 162 171 188 164 178 193 196 204 206 207 213 185 158 152 170 242 233 235 241 241 254 236 190 224 236 236 251 253 246 252 260 270 273 263 267 285 280 278 274
145 147 153 165 172 175 188 189 202 196 196 201 207 206 205 188 162 173 220 240 232 233 236 241 242 224 252 276 261 255 245 250 255 251 255 267 273 269 251 254 268 268 261
160 164 171 177 181 193 202 207 215 206 205 206 207 197 198 183 177 189 216 258 242 239 231 229 215 212 224 277 268 267 268 266 264 253 249 252 256 258 254 260 268 273 279
168 173 171 181 198 205 206 205 208 210 213 216 217 209 206 195 192 195 206 257 256 250 228 204 193 195 205 248 264 269 268 273 281 264 251 254 250 248 243 233 247 264 281
161 162 170 186 202 201 200 205 211 221 225 218 223 221 215 203 194 197 201 240 265 264 249 209 190 187 207 242 259 262 261 276 274 261 251 242 238 235 228 225 224 233 251
139 166 191 205 232 213 187 202 207 216 234 227 225 227 216 195 190 197 205 228 255 267 262 246 201 200 223 247 253 255 261 270 264 260 253 246 242 238 231 223 222 226 231
140 178 207 225 242 216 197 208 213 216 231 242 231 228 221 193 182 192 209 230 242 260 289 277 249 231 242 251 243 246 248 248 251 256 254 252 248 245 238 239 245 238 240
56 263 232 217 231 234 227 227 226 230 238 246 254 258 247 214 188 186 206 222 235 242 262 276 247 240 252 256 251 240 239 245 248 254 261 256 244 239 245 250 251 243 243
274 270 255 248 240 239 239 263 256 251 241 252 276 287 278 262 240 208 220 234 239 253 262 253 244 248 247 241 241 241 241 247 249 252 255 257 255 254 253 248 247 254 251
253 260 266 261 254 252 233 251 264 230 202 211 229 247 256 245 222 215 216 221 219 221 236 250 249 244 247 247 243 242 236 236 240 246 248 249 249 252 256 254 250 246 246
300 293 286 278 261 256 253 238 250 245 235 238 242 241 232 230 225 222 223 225 231 210 229 248 249 246 246 249 245 243 242 236 231 238 243 245 246 253 258 254 251 247 247
299 296 293 289 285 275 268 258 243 247 247 240 232 234 230 225 224 224 219 211 237 228 241 247 247 246 243 245 246 242 242 240 234 238 247 248 246 250 255 258 254 252 251
294 295 295 295 286 282 282 280 274 271 271 269 240 233 225 223 231 228 203 226 241 243 246 250 251 250 250 252 255 248 241 244 247 246 246 243 247 255 258 257 256 254 251
262 270 278 285 284 278 272 273 275 275 273 269 260 240 193 206 228 220 217 230 243 247 243 245 247 250 248 249 254 253 247 241 239 242 249 249 248 255 262 263 260 254 248
277 261 254 271 275 281 284 283 279 273 272 265 263 252 215 223 235 233 233 235 241 245 244 247 247 243 236 233 240 251 255 249 240 239 239 237 247 258 264 265 263 256 255
287 282 270 270 277 281 285 288 285 279 278 283 283 249 226 244 253 248 240 242 249 250 246 245 251 248 240 233 234 241 254 258 252 246 247 246 244 256 258 252 254 256 256
276 276 275 271 275 268 267 274 278 279 279 280 283 272 242 262 276 274 266 260 256 256 250 244 246 245 246 237 235 235 244 251 248 239 241 243 242 242 244 243 251 253 245
282 284 288 290 290 289 287 288 290 291 290 287 283 276 264 259 271 278 280 276 275 273 266 255 246 245 249 245 240 238 243 255 251 240 239 245 247 247 239 241 243 248 251
291 288 285 286 291 292 291 289 290 292 291 288 286 280 278 275 273 278 277 275 276 273 276 274 258 246 246 242 242 243 236 225 225 242 241 237 240 241 239 242 248 248 238
293 292 298 299 293 288 286 288 288 289 290 292 289 286 283 285 283 278 279 281 282 282 280 277 281 280 259 241 235 227 196 196 205 214 222 232 232 232 225 227 243 251 247